Weather History for Northeast Philadelphia, PA

Change the Weather History Date:

Thursday, January 17, 2013

  Actual Average Record
Temperature  
Mean Temperature 40 °F -  
Max Temperature 42 °F 34 °F 55 °F (2012)
Min Temperature 37 °F 21 °F 8 °F (2000)
Degree Days  
Heating Degree Days 26    
Moisture  
Dew Point 29 °F    
Average Humidity 68    
Maximum Humidity 93    
Minimum Humidity 55    
Precipitation  
Precipitation 0.00 in - - ()
Sea Level Pressure  
Sea Level Pressure 30.06 in    
Wind  
Wind Speed 4 mph (NW)    
Max Wind Speed 14 mph    
Max Gust Speed -    
Visibility 10 miles    
Events      
Averages and records for this station are not official NWS values.
T = Trace of Precipitation, MM = Missing Value Source: NWS Daily Summary

Daily Weather History Graph

Daily Weather History Graph

Search for Another Location

Airport:

Trip Planner

Search our weather history database for the weather conditions in past years. The results will help you decide how hot, cold, wet, or windy it might be!

Date:

Astronomy

Jan. 17, 2013 Rise Set
Actual Time 7:19 AM EST 5:01 PM EST
Civil Twilight 6:49 AM EST 5:31 PM EST
Nautical Twilight 6:16 AM EST 6:04 PM EST
Astronomical Twilight 5:43 AM EST 6:36 PM EST
Moon 10:24 AM EST (1/17) 11:50 PM EST (1/17)
Length of Visible Light 10h 41m
Length of Day
9h 42m
Waxing Crescent, 37% of the Moon is Illuminated
Jan 17
Waxing Crescent
Jan 18
First Quarter
Jan 26
Full
Feb 3
Last Quarter
Feb 10
New

Hourly Weather History & Observations

Time (EST) Temp. Windchill Dew Point Humidity Pressure Visibility Wind Dir Wind Speed Gust Speed Precip Events Conditions
12:54 AM 37.9 °F - 35.1 °F 89% 29.98 in 7.0 mi Calm Calm - N/A   Clear
1:54 AM 37.9 °F - 36.0 °F 93% 29.99 in 7.0 mi Calm Calm - N/A   Scattered Clouds
2:54 AM 39.0 °F - 36.0 °F 89% 29.99 in 8.0 mi Calm Calm - N/A   Clear
3:54 AM 37.4 °F - 35.6 °F 93% 29.98 in 7.0 mi Calm Calm - N/A   Clear
4:54 AM 37.0 °F - 32.0 °F 82% 29.98 in 10.0 mi Calm Calm - N/A   Clear
5:54 AM 37.9 °F 32.7 °F 30.9 °F 76% 30.02 in 10.0 mi West 6.9 mph - N/A   Clear
6:54 AM 39.0 °F 33.4 °F 28.9 °F 67% 30.04 in 10.0 mi NW 8.1 mph - N/A   Scattered Clouds
7:54 AM 39.0 °F 33.4 °F 27.0 °F 62% 30.08 in 10.0 mi WNW 8.1 mph - N/A   Clear
8:54 AM 39.0 °F 34.0 °F 28.0 °F 65% 30.12 in 10.0 mi WNW 6.9 mph - N/A   Clear
9:54 AM 39.0 °F 34.8 °F 28.0 °F 65% 30.10 in 10.0 mi NNW 5.8 mph - N/A   Clear
10:54 AM 41.0 °F 34.7 °F 28.0 °F 60% 30.11 in 10.0 mi NNW 10.4 mph - N/A   Partly Cloudy
11:54 AM 42.1 °F 35.7 °F 28.0 °F 58% 30.11 in 10.0 mi NNW 11.5 mph - N/A   Partly Cloudy
12:54 PM 42.1 °F 34.9 °F 28.0 °F 58% 30.09 in 10.0 mi NNW 13.8 mph - N/A   Scattered Clouds
1:54 PM 42.1 °F 35.2 °F 27.0 °F 55% 30.09 in 10.0 mi NNW 12.7 mph - N/A   Clear
2:54 PM 41.0 °F 35.2 °F 27.0 °F 57% 30.07 in 10.0 mi North 9.2 mph - N/A   Scattered Clouds
3:54 PM 41.0 °F 38.0 °F 28.0 °F 60% 30.08 in 10.0 mi NNW 4.6 mph - N/A   Scattered Clouds
4:54 PM 39.9 °F 36.7 °F 26.1 °F 58% 30.11 in 10.0 mi North 4.6 mph - N/A   Overcast
5:54 PM 39.9 °F 37.8 °F 26.1 °F 58% 30.11 in 10.0 mi NW 3.5 mph - N/A   Overcast
6:54 PM 39.0 °F 35.7 °F 27.0 °F 62% 30.11 in 10.0 mi NNW 4.6 mph - N/A   Overcast
7:54 PM 39.0 °F 36.8 °F 26.1 °F 60% 30.11 in 10.0 mi NW 3.5 mph - N/A   Overcast
8:54 PM 39.0 °F 35.7 °F 28.0 °F 65% 30.07 in 10.0 mi NNW 4.6 mph - N/A   Overcast
9:54 PM 37.9 °F 32.7 °F 28.0 °F 68% 30.07 in 10.0 mi NW 6.9 mph - N/A   Overcast
10:54 PM 37.9 °F 32.7 °F 28.0 °F 68% 30.06 in 10.0 mi NNW 6.9 mph - N/A   Overcast
11:54 PM 37.0 °F 32.4 °F 28.0 °F 70% 30.05 in 10.0 mi NW 5.8 mph - N/A   Mostly Cloudy